SWA4180 KLAX-KDEN

Flight info

Callsign SWA4180
Flight time N/A
Altitude 35000
Route ORCKA5 LAS J146 DICEE BUMMP SSKII4
Aircraft B738/M-SDE2E3FGHIRWXY/LB1

Departure

Time 2026-04-22 18:24
Airport Los Angeles International Airport (KLAX)

Arrival

Time N/A
Airport Denver International Airport (KDEN)
Time Latitude Longitude Altitude Speed Heading
2026-04-22 18:07 33.94718 -118.40485 119 ft 0 kts 130°
2026-04-22 18:17 33.94722 -118.40490 119 ft 2 kts 130°
2026-04-22 18:17 33.94732 -118.40505 121 ft 2 kts 130°
2026-04-22 18:17 33.94743 -118.40520 123 ft 2 kts 129°
2026-04-22 18:18 33.94753 -118.40536 119 ft 2 kts 129°
2026-04-22 18:18 33.94763 -118.40551 123 ft 2 kts 128°
2026-04-22 18:18 33.94773 -118.40567 121 ft 2 kts 124°
2026-04-22 18:18 33.94782 -118.40584 122 ft 2 kts 106°
2026-04-22 18:19 33.94783 -118.40596 121 ft 0 kts 83°
2026-04-22 18:19 33.94783 -118.40597 121 ft 0 kts 83°
2026-04-22 18:19 33.94783 -118.40595 121 ft 1 kts 83°
2026-04-22 18:20 33.94788 -118.40551 124 ft 10 kts 83°
2026-04-22 18:20 33.94800 -118.40435 123 ft 18 kts 83°
2026-04-22 18:20 33.94820 -118.40271 122 ft 20 kts 78°
2026-04-22 18:20 33.94842 -118.40124 125 ft 9 kts 76°
2026-04-22 18:21 33.94885 -118.40081 124 ft 8 kts 21°
2026-04-22 18:21 33.94922 -118.40034 123 ft 8 kts 77°
2026-04-22 18:21 33.94933 -118.39964 124 ft 9 kts 73°
2026-04-22 18:21 33.94974 -118.39915 122 ft 9 kts 11°
2026-04-22 18:22 33.95033 -118.39927 124 ft 9 kts 324°
2026-04-22 18:22 33.95039 -118.39973 124 ft 0 kts 264°
2026-04-22 18:23 33.95032 -118.40049 124 ft 35 kts 263°
2026-04-22 18:23 33.94971 -118.40641 125 ft 105 kts 263°
2026-04-22 18:23 33.94853 -118.41752 152 ft 158 kts 262°
2026-04-22 18:24 33.94532 -118.44640 1505 ft 180 kts 260°
2026-04-22 18:24 33.94374 -118.46102 2452 ft 181 kts 262°
2026-04-22 18:24 33.94032 -118.49499 3095 ft 229 kts 263°
2026-04-22 18:25 33.93744 -118.51446 3003 ft 243 kts 248°
2026-04-22 18:25 33.92631 -118.53002 3009 ft 255 kts 210°
2026-04-22 18:25 33.90908 -118.53457 3008 ft 259 kts 174°
2026-04-22 18:26 33.87891 -118.51277 3001 ft 263 kts 123°
2026-04-22 18:26 33.87317 -118.49199 3198 ft 266 kts 91°
2026-04-22 18:26 33.87710 -118.47031 4014 ft 271 kts 60°
2026-04-22 18:26 33.88998 -118.45435 4897 ft 269 kts 25°
2026-04-22 18:27 33.90731 -118.44629 5825 ft 268 kts 16°
2026-04-22 18:27 33.92472 -118.43873 6704 ft 273 kts 25°
2026-04-22 18:27 33.93897 -118.42316 7473 ft 285 kts 51°
2026-04-22 18:27 33.95030 -118.40320 8227 ft 293 kts 53°
2026-04-22 18:28 33.96175 -118.38257 9010 ft 301 kts 52°
2026-04-22 18:28 33.97360 -118.36137 9914 ft 306 kts 52°
2026-04-22 18:28 33.98571 -118.33989 10552 ft 318 kts 52°
2026-04-22 18:28 33.99867 -118.31703 10764 ft 342 kts 52°
2026-04-22 18:29 34.01227 -118.29302 11363 ft 349 kts 52°
2026-04-22 18:29 34.02599 -118.26875 12097 ft 352 kts 52°
2026-04-22 18:29 34.03983 -118.24433 12896 ft 353 kts 51°
2026-04-22 18:29 34.05366 -118.21990 13759 ft 352 kts 51°
2026-04-22 18:30 34.06745 -118.19553 14551 ft 352 kts 51°
2026-04-22 18:30 34.09540 -118.14619 15547 ft 372 kts 51°
2026-04-22 18:30 34.11036 -118.11979 15836 ft 388 kts 52°
2026-04-22 18:31 34.12573 -118.09255 16408 ft 396 kts 52°
2026-04-22 18:31 34.14129 -118.06492 17119 ft 400 kts 52°
2026-04-22 18:31 34.15707 -118.03692 17759 ft 407 kts 52°
2026-04-22 18:31 34.17310 -118.00846 18341 ft 413 kts 52°
2026-04-22 18:32 34.18929 -117.97971 18937 ft 415 kts 52°
2026-04-22 18:32 34.20563 -117.95069 19481 ft 420 kts 53°
2026-04-22 18:32 34.22212 -117.92120 19963 ft 426 kts 53°
2026-04-22 18:32 34.23879 -117.89147 20580 ft 428 kts 53°
2026-04-22 18:33 34.25560 -117.86150 21049 ft 434 kts 53°
2026-04-22 18:33 34.27263 -117.83109 21528 ft 440 kts 53°
2026-04-22 18:33 34.28989 -117.80033 22056 ft 443 kts 53°
2026-04-22 18:33 34.30725 -117.76932 22561 ft 448 kts 53°
2026-04-22 18:34 34.32473 -117.73795 23044 ft 451 kts 54°
2026-04-22 18:34 34.34228 -117.70627 23536 ft 455 kts 54°
2026-04-22 18:34 34.36032 -117.67449 23953 ft 460 kts 52°
2026-04-22 18:34 34.37900 -117.64301 24375 ft 462 kts 51°
2026-04-22 18:35 34.39795 -117.61162 24908 ft 462 kts 51°
2026-04-22 18:35 34.41706 -117.58008 25260 ft 467 kts 51°
2026-04-22 18:35 34.43625 -117.54818 25649 ft 470 kts 51°
2026-04-22 18:35 34.45527 -117.51645 26062 ft 474 kts 51°
2026-04-22 18:36 34.47466 -117.48397 26436 ft 478 kts 51°
2026-04-22 18:36 34.49416 -117.45120 26839 ft 480 kts 51°
2026-04-22 18:36 34.51374 -117.41824 27227 ft 483 kts 51°
2026-04-22 18:36 34.53342 -117.38507 27622 ft 485 kts 51°
2026-04-22 18:37 34.55315 -117.35179 28009 ft 488 kts 51°
2026-04-22 18:37 34.57301 -117.31825 28382 ft 491 kts 51°
2026-04-22 18:37 34.58648 -117.29550 28621 ft 492 kts 51°
2026-04-22 18:37 34.61301 -117.25064 29099 ft 496 kts 51°
2026-04-22 18:38 34.63318 -117.21651 29449 ft 498 kts 51°
2026-04-22 18:38 34.65339 -117.18226 29732 ft 500 kts 51°
2026-04-22 18:38 34.67373 -117.14778 30052 ft 504 kts 51°
2026-04-22 18:39 34.71468 -117.07823 30518 ft 508 kts 51°
2026-04-22 18:39 34.73525 -117.04323 30771 ft 511 kts 51°
2026-04-22 18:39 34.75595 -117.00798 31105 ft 511 kts 51°
2026-04-22 18:39 34.77655 -116.97286 31515 ft 509 kts 51°
2026-04-22 18:40 34.79708 -116.93783 31963 ft 507 kts 51°
2026-04-22 18:40 34.81750 -116.90295 32388 ft 505 kts 51°
2026-04-22 18:40 34.83787 -116.86815 32770 ft 505 kts 51°
2026-04-22 18:40 34.85137 -116.84506 32926 ft 507 kts 51°
2026-04-22 18:41 34.87874 -116.79821 33280 ft 508 kts 51°
2026-04-22 18:41 34.89232 -116.77494 33522 ft 508 kts 51°
2026-04-22 18:41 34.91272 -116.73994 33922 ft 505 kts 50°
2026-04-22 18:41 34.93421 -116.70635 34277 ft 500 kts 44°
2026-04-22 18:42 34.95742 -116.67492 34539 ft 498 kts 41°
2026-04-22 18:42 34.98122 -116.64421 34750 ft 499 kts 41°
2026-04-22 18:42 35.01306 -116.60369 35048 ft 500 kts 40°
2026-04-22 18:42 35.02928 -116.58293 35132 ft 502 kts 41°
2026-04-22 18:43 35.07768 -116.52012 35110 ft 513 kts 41°
2026-04-22 18:43 35.12660 -116.45556 35098 ft 522 kts 42°
2026-04-22 18:44 35.17595 -116.39001 35115 ft 526 kts 42°
2026-04-22 18:44 35.22557 -116.32401 35106 ft 528 kts 42°
2026-04-22 18:45 35.27530 -116.25783 35123 ft 528 kts 42°
2026-04-22 18:45 35.32499 -116.19157 35105 ft 527 kts 42°
2026-04-22 18:46 35.37420 -116.12583 35102 ft 522 kts 42°
2026-04-22 18:46 35.42323 -116.06026 35113 ft 521 kts 42°
2026-04-22 18:47 35.47218 -115.99466 35123 ft 521 kts 42°
2026-04-22 18:47 35.52105 -115.92902 35124 ft 521 kts 42°
2026-04-22 18:48 35.56963 -115.86363 35123 ft 522 kts 42°
2026-04-22 18:48 35.61850 -115.79773 35126 ft 522 kts 42°
2026-04-22 18:49 35.66732 -115.73141 35130 ft 523 kts 43°
2026-04-22 18:49 35.71588 -115.66461 35125 ft 524 kts 43°
2026-04-22 18:50 35.76452 -115.59752 35129 ft 525 kts 43°
2026-04-22 18:50 35.81328 -115.53025 35134 ft 527 kts 43°
2026-04-22 18:51 35.86216 -115.46274 35119 ft 529 kts 43°
2026-04-22 18:51 35.91113 -115.39492 35121 ft 530 kts 43°
2026-04-22 18:52 35.96020 -115.32684 35135 ft 531 kts 43°
2026-04-22 18:52 36.00931 -115.25855 35110 ft 533 kts 43°
2026-04-22 18:53 36.05832 -115.18976 35092 ft 534 kts 46°
2026-04-22 18:53 36.09886 -115.11347 34999 ft 527 kts 53°
2026-04-22 18:54 36.13687 -115.03731 34942 ft 519 kts 59°
2026-04-22 18:54 36.15253 -114.99692 34603 ft 525 kts 63°
2026-04-22 18:54 36.16825 -114.95586 34036 ft 533 kts 62°
2026-04-22 18:55 36.18125 -114.91298 33950 ft 530 kts 79°
2026-04-22 18:55 36.18479 -114.86874 34019 ft 519 kts 89°
2026-04-22 18:55 36.18770 -114.82454 33903 ft 512 kts 82°
2026-04-22 18:55 36.19513 -114.78127 33595 ft 504 kts 74°
2026-04-22 18:56 36.20547 -114.74051 33140 ft 501 kts 69°
2026-04-22 18:56 36.21732 -114.70138 32590 ft 501 kts 67°
2026-04-22 18:56 36.23034 -114.66135 31977 ft 502 kts 66°
2026-04-22 18:56 36.24356 -114.62120 31348 ft 504 kts 66°
2026-04-22 18:57 36.25657 -114.58081 30725 ft 506 kts 69°
2026-04-22 18:57 36.26405 -114.53829 30041 ft 507 kts 91°
2026-04-22 18:57 36.26020 -114.49543 29340 ft 496 kts 112°
2026-04-22 18:57 36.24758 -114.45646 28752 ft 483 kts 123°
2026-04-22 18:58 36.23513 -114.41750 28038 ft 494 kts 109°
2026-04-22 18:58 36.22849 -114.37543 27321 ft 499 kts 103°
2026-04-22 18:58 36.22355 -114.33279 26668 ft 500 kts 101°
2026-04-22 18:58 36.21908 -114.29027 26184 ft 496 kts 101°
2026-04-22 18:59 36.21479 -114.24831 25987 ft 485 kts 101°
2026-04-22 18:59 36.21072 -114.20748 25898 ft 471 kts 101°
2026-04-22 18:59 36.20684 -114.16771 25812 ft 459 kts 101°
2026-04-22 18:59 36.20315 -114.12916 25731 ft 443 kts 101°
2026-04-22 19:00 36.19971 -114.09195 25571 ft 428 kts 101°
2026-04-22 19:00 36.19652 -114.05574 25344 ft 419 kts 101°
2026-04-22 19:00 36.19349 -114.02017 24837 ft 416 kts 100°
2026-04-22 19:00 36.19034 -113.98438 24172 ft 419 kts 101°
2026-04-22 19:01 36.18713 -113.94863 23682 ft 416 kts 101°
2026-04-22 19:01 36.18396 -113.91330 23183 ft 411 kts 101°
2026-04-22 19:01 36.18082 -113.87836 22664 ft 405 kts 100°
2026-04-22 19:01 36.17765 -113.84390 22109 ft 402 kts 100°
2026-04-22 19:02 36.17436 -113.80977 21599 ft 396 kts 104°
2026-04-22 19:02 36.16616 -113.77805 21093 ft 379 kts 126°
2026-04-22 19:02 36.15034 -113.75354 20515 ft 354 kts 151°
2026-04-22 19:02 36.12967 -113.73957 20027 ft 328 kts 174°
2026-04-22 19:03 36.10787 -113.73505 19589 ft 313 kts 184°
2026-04-22 19:03 36.08623 -113.73321 19105 ft 307 kts 191°
2026-04-22 19:03 36.06684 -113.73932 18855 ft 275 kts 218°
2026-04-22 19:03 36.05308 -113.75458 18648 ft 264 kts 235°
2026-04-22 19:04 36.04319 -113.77387 18455 ft 271 kts 245°
2026-04-22 19:04 36.03696 -113.79626 18223 ft 282 kts 260°
2026-04-22 19:04 36.03616 -113.82064 18045 ft 287 kts 269°
2026-04-22 19:04 36.03698 -113.84553 17733 ft 292 kts 270°
2026-04-22 19:05 36.03803 -113.87071 17479 ft 295 kts 269°
2026-04-22 19:05 36.03904 -113.89608 17185 ft 296 kts 270°
2026-04-22 19:05 36.04005 -113.92144 16939 ft 295 kts 270°
2026-04-22 19:05 36.04099 -113.94636 16713 ft 293 kts 270°
2026-04-22 19:06 36.04192 -113.97150 16397 ft 293 kts 270°
2026-04-22 19:06 36.04292 -113.99675 16128 ft 305 kts 270°
2026-04-22 19:06 36.04397 -114.02315 15715 ft 307 kts 270°
2026-04-22 19:07 36.04592 -114.07414 15022 ft 287 kts 270°
2026-04-22 19:07 36.04680 -114.09835 14717 ft 278 kts 270°
2026-04-22 19:07 36.04764 -114.12182 14421 ft 269 kts 270°
2026-04-22 19:07 36.04845 -114.14460 14132 ft 261 kts 269°
2026-04-22 19:08 36.04921 -114.16668 13848 ft 255 kts 270°
2026-04-22 19:08 36.04996 -114.18870 13579 ft 259 kts 270°
2026-04-22 19:08 36.05072 -114.21111 13284 ft 264 kts 270°
2026-04-22 19:08 36.05149 -114.23400 12972 ft 269 kts 270°
2026-04-22 19:09 36.05226 -114.25712 12668 ft 269 kts 270°
2026-04-22 19:09 36.05304 -114.28014 12364 ft 268 kts 270°
2026-04-22 19:09 36.05356 -114.29568 12160 ft 267 kts 270°
2026-04-22 19:09 36.05457 -114.32587 11782 ft 265 kts 270°
2026-04-22 19:10 36.05532 -114.34853 11490 ft 264 kts 270°
2026-04-22 19:10 36.05606 -114.37113 11203 ft 263 kts 269°
2026-04-22 19:10 36.05679 -114.39366 10925 ft 262 kts 270°
2026-04-22 19:10 36.05752 -114.41608 10637 ft 261 kts 270°
2026-04-22 19:11 36.05824 -114.43845 10359 ft 260 kts 270°
2026-04-22 19:11 36.05895 -114.46077 10094 ft 259 kts 270°
2026-04-22 19:11 36.05966 -114.48278 9951 ft 254 kts 269°
2026-04-22 19:11 36.06035 -114.50454 9674 ft 253 kts 269°
2026-04-22 19:12 36.06103 -114.52621 9386 ft 252 kts 269°
2026-04-22 19:12 36.06171 -114.54777 9116 ft 250 kts 270°
2026-04-22 19:12 36.06237 -114.56922 8832 ft 250 kts 270°
2026-04-22 19:12 36.06306 -114.59064 8567 ft 249 kts 270°
2026-04-22 19:13 36.06372 -114.61200 8291 ft 249 kts 270°
2026-04-22 19:13 36.06436 -114.63331 8011 ft 247 kts 270°
2026-04-22 19:13 36.06500 -114.65451 7733 ft 248 kts 270°
2026-04-22 19:13 36.06563 -114.67584 7454 ft 249 kts 270°
2026-04-22 19:14 36.06627 -114.69728 7175 ft 250 kts 270°
2026-04-22 19:14 36.06690 -114.71855 6906 ft 251 kts 270°
2026-04-22 19:14 36.06755 -114.74025 6594 ft 255 kts 270°
2026-04-22 19:14 36.06820 -114.76210 6332 ft 254 kts 270°
2026-04-22 19:15 36.06863 -114.77679 6148 ft 254 kts 270°
2026-04-22 19:15 36.06947 -114.80530 5959 ft 246 kts 269°
2026-04-22 19:15 36.07006 -114.82616 5834 ft 241 kts 270°
2026-04-22 19:15 36.07066 -114.84657 5724 ft 235 kts 270°
2026-04-22 19:16 36.07124 -114.86647 5618 ft 227 kts 270°
2026-04-22 19:16 36.07179 -114.88566 5505 ft 220 kts 270°
2026-04-22 19:16 36.07234 -114.90451 5319 ft 218 kts 270°
2026-04-22 19:16 36.07340 -114.92295 5212 ft 208 kts 271°
2026-04-22 19:17 36.07394 -114.94061 4962 ft 204 kts 270°
2026-04-22 19:17 36.07398 -114.95784 4712 ft 198 kts 268°
2026-04-22 19:17 36.07394 -114.97446 4486 ft 189 kts 268°
2026-04-22 19:17 36.07390 -114.99030 4235 ft 179 kts 268°
2026-04-22 19:18 36.07386 -115.00541 4005 ft 175 kts 268°
2026-04-22 19:18 36.07383 -115.02034 3805 ft 172 kts 268°
2026-04-22 19:18 36.07380 -115.03506 3565 ft 171 kts 268°